Waarnemingen

Advertentie
Mijn weer
St-Auban-Sur-Durance, Frankrijk (7588): temperatuur & dauwpunt: 18.04.2018 10:00:00 - 24.04.2018 10:00:00 (CEST)St-Auban-Sur-Durance, Frankrijk (7588): temperatuur 5cm: 18.04.2018 10:00:00 - 24.04.2018 10:00:00 (CEST)St-Auban-Sur-Durance, Frankrijk (7588): temperatuur -20cm: 18.04.2018 10:00:00 - 24.04.2018 10:00:00 (CEST)St-Auban-Sur-Durance, Frankrijk (7588): windsnelheid & windstoten: 18.04.2018 10:00:00 - 24.04.2018 10:00:00 (CEST)St-Auban-Sur-Durance, Frankrijk (7588): windrichting: 18.04.2018 10:00:00 - 24.04.2018 10:00:00 (CEST)St-Auban-Sur-Durance, Frankrijk (7588): luchtdruk: 18.04.2018 10:00:00 - 24.04.2018 10:00:00 (CEST)St-Auban-Sur-Durance, Frankrijk (7588): zicht: 18.04.2018 10:00:00 - 24.04.2018 10:00:00 (CEST)St-Auban-Sur-Durance, Frankrijk (7588): Zonneschijnduur: 18.04.2018 10:00:00 - 24.04.2018 10:00:00 (CEST)St-Auban-Sur-Durance, Frankrijk (7588): neerslag: 18.04.2018 10:00:00 - 24.04.2018 10:00:00 (CEST)
Datum & Tijd tt [°C] td [°C] tt 5cm [°C] tt -20cm [°C] ff [km/u] ff [kn] fx [km/u] fx [kn] dd ppp [hPa] vv [km] sd [min] rr [mm]
24.04.2018 10:00:00 17,5 8,9 19,0 17,1 13 7 41 22 NNO 1017,4 20 28 0,0
24.04.2018 09:00:00 17,6 9,2 17,5 17,2 15 8 29 15 NNO 1017,1 20 60 0,0
24.04.2018 08:00:00 14,0 9,6 11,6 17,3 3 2 11 6 O 1017,8 20 50 0,0
24.04.2018 07:00:00 12,7 8,4 11,5 17,5 5 3 30 16 WZW 1017,8 20 0 0,0
24.04.2018 06:00:00 13,8 8,8 12,5 17,7 7 4 26 14 N 1017,1 20 0 0,0
24.04.2018 05:00:00 14,2 9,0 12,7 17,9 8 4 26 14 N 1017,1 20 0 0,0
24.04.2018 04:00:00 14,9 9,0 12,8 18,0 5 3 19 10 NW 1017,4 20 0 0,0
24.04.2018 03:00:00 16,4 8,4 14,8 18,1 3 2 15 8 ONO 1016,7 20 0 0,0
24.04.2018 02:00:00 16,4 10,0 14,4 18,2 11 6 18 10 NNO 1017,2 20 0 0,0
24.04.2018 01:00:00 17,5 9,4 13,0 18,4 13 7 23 12 NNO 1018,1 20 0 0,2
24.04.2018 00:00:00 15,8 11,0 14,2 18,5 6 3 10 5 Z 1018,9 20 0 0,0
23.04.2018 23:00:00 15,9 10,2 14,5 18,6 0 0 5 3 N 1018,6 20 0 0,0
23.04.2018 22:00:00 17,1 10,2 16,5 18,7 2 1 12 6 NNO 1018,1 20 0 0,0
23.04.2018 21:00:00 17,7 10,6 17,0 18,7 9 5 11 6 W 1017,4 20 0 0,0
23.04.2018 20:00:00 19,1 10,6 18,7 18,6 6 3 14 8 WZW 1016,4 20 0 0,0
23.04.2018 19:00:00 20,8 10,6 21,3 18,4 11 6 28 15 ZZW 1015,9 20 6 0,0
23.04.2018 18:00:00 22,2 10,0 23,7 18,2 16 9 31 17 ZZW 1015,8 20 25 0,0
23.04.2018 17:00:00 22,7 9,8 24,0 17,9 21 12 34 19 ZZW 1015,5 20 23 0,0
23.04.2018 16:00:00 24,1 8,9 28,0 17,6 20 11 29 16 ZW 1015,8 20 53 0,0
23.04.2018 15:00:00 23,8 7,8 29,0 17,2 19 11 29 16 ZZW 1016,4 20 60 0,0
23.04.2018 14:00:00 23,4 8,3 28,3 16,9 17 9 24 13 ZZW 1017,0 20 58 0,0
23.04.2018 13:00:00 22,3 7,7 27,1 16,6 9 5 21 12 ZZW 1017,7 20 58 0,0
23.04.2018 12:00:00 21,2 8,1 27,0 16,5 9 5 15 8 ZZW 1018,4 20 60 0,0
23.04.2018 11:00:00 19,3 9,2 23,7 16,5 3 2 14 8 NW 1018,9 20 60 0,0
23.04.2018 10:00:00 16,4 8,4 18,2 16,6 4 2 14 7 OZO 1019,7 19 55 0,0
23.04.2018 09:00:00 13,4 8,5 13,8 16,8 6 4 11 6 O 1020,2 19 60 0,0
23.04.2018 08:00:00 11,1 8,0 7,6 16,9 3 2 8 4 O 1020,5 20 47 0,0
23.04.2018 07:00:00 8,7 6,5 6,9 17,2 5 3 12 6 O 1020,3 20 0 0,0
23.04.2018 06:00:00 8,9 6,9 7,2 17,4 4 2 12 7 O 1020,1 20 0 0,0
23.04.2018 05:00:00 8,6 6,7 7,4 17,5 4 2 12 6 ONO 1020,7 18 0 0,0
23.04.2018 04:00:00 10,0 7,4 8,2 17,7 5 3 13 7 O 1020,5 20 0 0,0
23.04.2018 03:00:00 10,4 8,0 8,8 17,9 5 3 9 5 ONO 1020,7 19 0 0,0
23.04.2018 02:00:00 10,9 7,2 9,8 18,1 3 2 7 4 ZZO 1021,0 20 0 0,0
23.04.2018 01:00:00 11,9 7,2 10,8 18,3 0 0 10 5 N 1020,6 20 0 0,0
23.04.2018 00:00:00 12,8 7,2 11,3 18,4 3 2 11 6 ZO 1020,4 20 0 0,0
22.04.2018 23:00:00 14,3 7,6 12,9 18,6 7 4 10 5 WNW 1019,7 20 0 0,0
22.04.2018 22:00:00 16,4 7,9 14,5 18,6 6 4 11 6 W 1019,0 20 0 0,0
22.04.2018 21:00:00 18,4 7,8 16,9 18,7 7 4 34 18 ZZO 1017,6 20 0 0,0
22.04.2018 20:00:00 20,9 7,1 20,4 18,6 23 13 39 21 ZZW 1016,0 20 25 0,0
22.04.2018 19:00:00 23,1 7,2 24,8 18,4 24 13 35 19 ZZW 1015,1 20 50 0,0
22.04.2018 18:00:00 25,5 5,6 29,6 18,1 16 9 28 15 ZZW 1014,4 20 60 0,0
22.04.2018 17:00:00 25,7 6,3 30,4 17,7 18 10 30 16 ZZW 1014,5 20 60 0,0
22.04.2018 16:00:00 25,7 6,3 30,6 17,4 23 12 35 19 ZW 1014,8 20 60 0,0
22.04.2018 15:00:00 25,0 6,7 30,7 17,0 21 12 33 18 ZZW 1015,6 20 60 0,0
22.04.2018 14:00:00 25,6 6,2 30,0 16,6 23 12 34 19 ZW 1015,6 20 60 0,0
22.04.2018 13:00:00 25,2 5,9 30,9 16,3 13 7 19 11 ZW 1015,9 20 60 0,0
22.04.2018 12:00:00 23,5 7,1 27,9 16,2 3 2 14 8 ZZW 1016,9 20 60 0,0
22.04.2018 11:00:00 20,8 6,7 24,7 16,2 7 4 24 13 NNO 1017,9 20 60 0,0
22.04.2018 10:00:00 17,9 7,3 20,5 16,3 13 7 23 12 NNO 1018,6 20 60 0,0
22.04.2018 09:00:00 15,3 8,5 15,6 16,5 5 3 12 6 O 1019,1 20 60 0,0
22.04.2018 08:00:00 13,6 7,8 8,9 16,6 3 2 18 10 ONO 1019,5 20 49 0,0
22.04.2018 07:00:00 11,1 7,0 7,6 16,9 6 4 13 7 O 1019,3 20 0 0,0
22.04.2018 06:00:00 10,6 6,9 8,2 17,1 5 3 12 6 O 1019,1 20 0 0,0
22.04.2018 05:00:00 11,4 7,5 8,9 17,2 5 3 18 10 O 1019,1 20 0 0,0
22.04.2018 04:00:00 11,6 7,9 9,5 17,4 9 5 14 7 ONO 1019,2 20 0 0,0
22.04.2018 03:00:00 11,4 7,5 10,0 17,6 8 4 14 8 NO 1019,8 20 0 0,0
22.04.2018 02:00:00 12,2 7,7 10,3 17,8 8 4 15 8 NO 1020,1 20 0 0,0
22.04.2018 01:00:00 12,5 6,7 10,6 18,0 6 4 12 7 NO 1020,4 20 0 0,0
22.04.2018 00:00:00 13,7 6,8 11,6 18,1 3 2 12 6 ONO 1020,3 20 0 0,0
21.04.2018 23:00:00 15,2 6,7 12,9 18,2 4 2 9 5 ZO 1020,0 20 0 0,0
21.04.2018 22:00:00 18,3 6,5 15,6 18,3 4 2 15 8 WNW 1019,2 20 0 0,0
21.04.2018 21:00:00 19,5 7,2 18,1 18,3 13 7 30 16 WZW 1018,1 20 0 0,0
21.04.2018 20:00:00 22,3 7,3 21,5 18,2 20 11 31 17 ZZW 1017,0 20 26 0,0
21.04.2018 19:00:00 24,6 8,1 26,5 18,0 21 12 34 19 ZW 1016,0 20 60 0,0
21.04.2018 18:00:00 26,2 4,0 29,7 17,7 17 9 27 15 ZZW 1015,7 20 60 0,0
21.04.2018 17:00:00 26,7 3,8 30,9 17,3 16 9 31 17 ZZW 1015,9 20 60 0,0
21.04.2018 16:00:00 26,6 4,9 31,5 16,9 20 11 33 18 ZZW 1016,5 20 60 0,0
21.04.2018 15:00:00 26,4 4,8 31,8 16,5 16 9 26 14 ZZW 1016,8 20 60 0,0
21.04.2018 14:00:00 26,0 5,0 31,9 16,1 11 6 20 11 ZZW 1017,4 20 60 0,0
21.04.2018 13:00:00 25,2 3,8 31,4 15,8 4 2 14 8 OZO 1018,1 20 60 0,0
21.04.2018 12:00:00 22,7 2,7 25,6 15,7 9 5 18 10 NO 1019,6 20 60 0,0
21.04.2018 11:00:00 19,4 4,3 23,6 15,7 9 5 28 15 NNO 1020,8 20 60 0,0
21.04.2018 10:00:00 17,3 4,6 19,4 15,8 16 8 35 19 NO 1021,3 20 60 0,0
21.04.2018 09:00:00 15,1 5,3 15,6 16,0 14 8 29 15 NO 1021,8 20 60 0,0
21.04.2018 08:00:00 13,7 6,3 12,3 16,1 9 5 18 10 ONO 1022,0 20 47 0,0
21.04.2018 07:00:00 13,0 6,8 10,3 16,3 7 4 21 11 ONO 1022,0 20 0 0,0
21.04.2018 06:00:00 12,3 7,2 11,3 16,5 7 4 18 10 O 1021,9 20 0 0,0
21.04.2018 05:00:00 12,3 7,8 11,1 16,7 7 4 22 12 ONO 1022,2 20 0 0,0
21.04.2018 04:00:00 12,6 8,3 10,0 16,9 10 5 23 12 O 1022,3 20 0 0,0
21.04.2018 03:00:00 11,1 8,7 9,4 17,0 8 4 16 9 ONO 1022,9 20 0 0,0
21.04.2018 02:00:00 11,4 8,4 10,0 17,2 6 4 15 8 ONO 1023,0 20 0 0,0
21.04.2018 01:00:00 12,2 8,3 10,3 17,4 6 3 12 6 NO 1023,2 20 0 0,0
21.04.2018 00:00:00 13,6 8,6 11,4 17,5 4 2 15 8 NO 1023,0 20 0 0,0
20.04.2018 23:00:00 15,6 9,0 13,3 17,6 5 3 9 5 ZO 1022,4 20 0 0,0
20.04.2018 22:00:00 16,8 9,0 14,7 17,7 6 4 20 11 WZW 1022,1 20 0 0,0
20.04.2018 21:00:00 19,3 9,5 17,9 17,7 11 6 18 10 ZW 1021,1 20 0 0,0
20.04.2018 20:00:00 21,4 9,3 20,2 17,5 12 7 32 18 ZZW 1020,1 20 26 0,0
20.04.2018 19:00:00 23,8 7,0 25,5 17,4 22 12 33 18 ZW 1019,4 20 60 0,0
20.04.2018 18:00:00 24,7 7,8 28,1 17,1 22 12 31 17 ZW 1019,1 20 60 0,0
20.04.2018 17:00:00 25,0 6,7 29,8 16,7 19 10 32 17 ZZW 1019,4 20 60 0,0
20.04.2018 16:00:00 25,1 5,8 30,2 16,3 18 10 34 19 ZZW 1019,8 20 60 0,0
20.04.2018 15:00:00 24,8 5,5 29,6 15,9 19 10 33 18 ZW 1020,5 20 60 0,0
20.04.2018 14:00:00 24,3 7,0 29,8 15,5 14 8 26 14 ZW 1021,2 20 60 0,0
20.04.2018 13:00:00 23,3 6,5 28,4 15,2 8 5 20 11 ZW 1022,2 20 60 0,0
20.04.2018 12:00:00 21,4 5,7 25,5 15,1 7 4 14 8 ZZW 1023,3 20 60 0,0
20.04.2018 11:00:00 18,8 7,9 21,6 15,1 4 2 14 8 O 1024,2 20 60 0,0
20.04.2018 10:00:00 16,0 8,5 17,6 15,2 6 3 13 7 O 1024,8 20 60 0,0
20.04.2018 09:00:00 13,3 7,5 13,8 15,4 5 3 13 7 ONO 1025,4 20 60 0,0
20.04.2018 08:00:00 10,6 7,5 7,1 15,6 5 3 10 5 ONO 1026,0 20 47 0,0
20.04.2018 07:00:00 8,8 6,1 6,5 15,8 5 3 22 12 ONO 1026,1 20 0 0,0
20.04.2018 06:00:00 9,0 6,6 7,0 16,0 8 5 16 9 O 1025,8 20 0 0,0
20.04.2018 05:00:00 9,4 7,0 7,1 16,2 8 4 16 9 ONO 1025,8 19 0 0,0
20.04.2018 04:00:00 9,2 6,6 7,3 16,4 6 3 11 6 NO 1026,0 19 0 0,0
20.04.2018 03:00:00 9,5 6,2 7,9 16,5 6 3 13 7 NO 1026,1 20 0 0,0
20.04.2018 02:00:00 10,8 6,7 8,7 16,8 7 4 10 6 NO 1026,2 20 0 0,0
20.04.2018 01:00:00 11,7 7,0 9,6 16,9 8 4 13 7 NO 1026,2 20 0 0,0
20.04.2018 00:00:00 12,6 6,4 10,7 17,1 4 2 17 9 O 1026,2 20 0 0,0
19.04.2018 23:00:00 14,5 7,5 11,7 17,2 9 5 16 8 OZO 1025,9 20 0 0,0
19.04.2018 22:00:00 15,8 6,8 12,9 17,3 3 2 11 6 NW 1025,7 20 0 0,0
19.04.2018 21:00:00 17,6 7,6 15,6 17,2 9 5 18 10 ZZW 1024,7 20 0 0,0
19.04.2018 20:00:00 20,3 7,0 19,3 17,2 15 8 32 17 ZW 1023,7 20 25 0,0
19.04.2018 19:00:00 22,2 7,2 23,9 17,0 26 14 42 23 ZZW 1022,9 20 60 0,0
19.04.2018 18:00:00 24,0 5,3 27,4 16,8 21 11 30 16 ZZW 1022,3 20 60 0,0
19.04.2018 17:00:00 24,3 6,5 28,9 16,4 23 12 31 17 ZZW 1022,3 20 60 0,0
19.04.2018 16:00:00 24,0 6,7 29,1 16,0 24 13 35 19 ZZW 1022,8 20 60 0,0
19.04.2018 15:00:00 23,9 7,1 28,9 15,7 24 13 31 17 ZZW 1023,1 20 60 0,0
19.04.2018 14:00:00 23,5 7,1 29,3 15,3 17 9 24 13 ZZW 1023,8 20 60 0,0
19.04.2018 13:00:00 22,6 6,8 28,2 15,0 16 8 23 12 ZZW 1024,6 20 60 0,0
19.04.2018 12:00:00 21,2 8,8 26,6 14,9 3 1 8 4 N 1025,6 20 60 0,0
19.04.2018 11:00:00 19,2 7,6 22,0 14,9 5 3 16 9 NNW 1026,4 20 60 0,0
19.04.2018 10:00:00 15,7 8,2 16,7 15,0 5 3 10 6 ONO 1027,3 20 60 0,0
19.04.2018 09:00:00 12,8 8,3 14,4 15,1 5 3 10 6 O 1027,9 20 60 0,0
19.04.2018 08:00:00 10,5 8,3 8,2 15,3 5 3 11 6 O 1028,5 20 48 0,0
19.04.2018 07:00:00 8,8 7,2 6,9 15,5 6 3 12 7 NO 1028,6 20 0 0,0
19.04.2018 06:00:00 8,5 7,1 7,0 15,7 6 3 13 7 NO 1028,6 20 0 0,0
19.04.2018 05:00:00 8,9 7,3 7,6 16,0 7 4 12 6 NO 1028,6 20 0 0,0
19.04.2018 04:00:00 9,5 7,8 8,2 16,1 7 4 10 5 NO 1028,7 20 0 0,0
19.04.2018 03:00:00 10,6 8,0 9,0 16,3 5 3 13 7 NO 1028,6 20 0 0,0
19.04.2018 02:00:00 11,5 8,0 10,2 16,4 6 3 13 7 ONO 1028,6 20 0 0,0
19.04.2018 01:00:00 12,1 8,2 10,5 16,6 3 1 9 5 OZO 1028,7 20 0 0,0
19.04.2018 00:00:00 13,1 8,6 11,7 16,8 4 2 8 5 ZO 1028,2 20 0 0,0
18.04.2018 23:00:00 15,0 8,7 13,4 16,9 9 5 11 6 W 1027,3 20 0 0,0
18.04.2018 22:00:00 16,9 9,1 14,7 16,9 2 1 26 14 NW 1026,6 20 0 0,0
18.04.2018 21:00:00 19,5 9,4 18,5 16,9 16 9 29 16 ZZW 1025,2 20 0 0,0
18.04.2018 20:00:00 21,0 9,9 20,3 16,8 17 9 31 17 Z 1023,9 20 24 0,0
18.04.2018 19:00:00 23,1 8,8 23,0 16,6 20 11 31 17 ZW 1023,2 20 49 0,0
18.04.2018 18:00:00 24,3 8,3 24,7 16,3 18 10 25 14 ZW 1022,8 20 27 0,0
18.04.2018 17:00:00 24,5 7,2 26,3 15,9 15 8 29 16 ZZW 1022,9 20 54 0,0
18.04.2018 16:00:00 25,2 6,9 30,6 15,4 8 5 21 12 Z 1023,2 20 60 0,0
18.04.2018 15:00:00 24,8 7,9 30,5 15,0 6 3 21 11 Z 1023,7 20 60 0,0
18.04.2018 14:00:00 23,6 7,2 29,0 14,6 9 5 23 12 ZZW 1024,4 20 60 0,0
18.04.2018 13:00:00 22,4 7,4 27,8 14,4 10 5 21 11 ZZW 1025,1 20 60 0,0
18.04.2018 12:00:00 21,2 9,4 26,1 14,2 8 4 15 8 ZZW 1025,9 20 60 0,0
18.04.2018 11:00:00 18,5 8,5 21,8 14,3 6 3 17 9 O 1026,6 20 60 0,0
18.04.2018 10:00:00 15,8 8,3 17,3 14,3 4 2 13 7 ONO 1027,5 20 60 0,0

tt = temperatuur
td = dauwpunt
tt 5cm = temperatuur 5cm
tt -20cm = temperatuur -20cm
ff = windsnelheid
fx = windstoten
dd = windrichting
ppp = luchtdruk
vv = zicht
sd = Zonneschijnduur
rr = neerslag

Weerstations in de omgeving